TimeEDT,TemperatureF,Dew PointF,Humidity,Sea Level PressureIn,VisibilityMPH,Wind Direction,Wind SpeedMPH,Gust SpeedMPH,PrecipitationIn,Events,Conditions,WindDirDegrees,DateUTC
12:53 AM,57.9,55.0,90,30.22,9.0,Calm,Calm,-,N/A,,Clear,0,2013-10-29 04:53:00
1:53 AM,57.9,55.0,90,30.22,9.0,Calm,Calm,-,N/A,,Clear,0,2013-10-29 05:53:00
2:53 AM,55.0,52.0,89,30.21,7.0,Calm,Calm,-,N/A,,Clear,0,2013-10-29 06:53:00
3:53 AM,54.0,51.1,90,30.20,9.0,Calm,Calm,-,N/A,,Clear,0,2013-10-29 07:53:00
4:53 AM,54.0,51.1,90,30.21,9.0,Calm,Calm,-,N/A,,Clear,0,2013-10-29 08:53:00
5:53 AM,55.9,53.1,90,30.22,8.0,NNW,3.5,-,N/A,,Clear,330,2013-10-29 09:53:00
6:53 AM,55.9,54.0,93,30.24,6.0,Calm,Calm,-,N/A,,Clear,0,2013-10-29 10:53:00
7:53 AM,55.9,54.0,93,30.25,5.0,Calm,Calm,-,N/A,,Clear,0,2013-10-29 11:53:00
8:53 AM,64.0,59.0,84,30.26,7.0,NE,3.5,-,N/A,,Clear,40,2013-10-29 12:53:00
9:53 AM,71.1,61.0,70,30.27,10.0,NE,10.4,-,N/A,,Clear,40,2013-10-29 13:53:00
10:53 AM,77.0,60.1,56,30.28,10.0,NE,10.4,-,N/A,,Clear,40,2013-10-29 14:53:00
11:53 AM,80.1,59.0,48,30.28,10.0,East,9.2,-,N/A,,Clear,80,2013-10-29 15:53:00
12:53 PM,81.0,60.1,49,30.25,10.0,Variable,3.5,-,N/A,,Clear,0,2013-10-29 16:53:00
1:53 PM,82.0,57.9,44,30.22,10.0,East,6.9,-,N/A,,Partly Cloudy,80,2013-10-29 17:53:00
2:53 PM,82.9,59.0,44,30.19,10.0,ENE,11.5,16.1,N/A,,Scattered Clouds,60,2013-10-29 18:53:00
3:53 PM,82.0,57.9,44,30.19,10.0,East,8.1,-,N/A,,Partly Cloudy,80,2013-10-29 19:53:00
4:53 PM,80.1,57.9,47,30.20,10.0,ENE,12.7,18.4,N/A,,Clear,60,2013-10-29 20:53:00
5:53 PM,77.0,59.0,54,30.20,10.0,ENE,8.1,-,N/A,,Clear,70,2013-10-29 21:53:00
6:53 PM,71.1,60.1,68,30.22,10.0,ENE,5.8,-,N/A,,Clear,60,2013-10-29 22:53:00
7:53 PM,68.0,60.1,76,30.24,10.0,ENE,5.8,-,N/A,,Clear,60,2013-10-29 23:53:00
8:53 PM,66.9,60.1,79,30.25,10.0,ENE,3.5,-,N/A,,Clear,60,2013-10-30 00:53:00
9:53 PM,66.0,59.0,78,30.26,10.0,Calm,Calm,-,N/A,,Clear,0,2013-10-30 01:53:00
10:53 PM,64.9,59.0,81,30.27,7.0,Calm,Calm,-,N/A,,Clear,0,2013-10-30 02:53:00
11:53 PM,63.0,59.0,87,30.27,6.0,NE,3.5,-,N/A,,Clear,40,2013-10-30 03:53:00